Location: Jaite
(41.2884°N, 81.5737°W)
Time: 06:31:54
(UTC+00:00)

Meteor 2-15 Rocket - Pass Details

Date: 18 January 2020
Orbit: 939 x 956 km, 82.5° (Epoch: 23 February)

Event Time Altitude Azimuth Distance (km) Brightness Sun altitude
Rises 10:18:57 0° 194° (SSW) 3,606 7.4 -27.8°
Enters shadow 10:20:33 - 196° (SSW) 3,003 6.9 -27.5°
Exits shadow 10:26:48 62° 241° (WSW) 1,067 4.4 -26.3°
Maximum altitude 10:27:31 68° 280° (W) 1,027 4.3 -26.2°
Drops below altitude 10° 10:33:40 10° 3° (N) 2,693 6.8 -25.0°
Sets 10:36:12 0° 6° (N) 3,644 7.5 -24.5°
